AFL1497 URMG-UUEE

Flight info

Callsign AFL1497
Flight time 2h 19m
Altitude 35000
Route N0450F350 PINTA G914 KZ DCT VULFI DCT TUVGI DCT EVZUN DCT ZIZAR DCT VAZLU DCT UZZID DCT NOKLI N72 WGD G481 OBABI T619 UMRAL P163 LADIM/K0831F360 P163 GOLRI L736 OLOPI
Aircraft A320/M-VGDW/C

Departure

Time 2026-05-07 17:51
Airport Akhmat Kadyrov Grozny International Airport (URMG)

Arrival

Time 2026-05-07 20:10
Airport Sheremetyevo International Airport (UUEE)
Time Latitude Longitude Altitude Speed Heading
2026-05-07 17:33 43.38571 45.69947 546 ft 0 kts 89°
2026-05-07 17:48 43.38604 45.69993 546 ft 14 kts
2026-05-07 17:48 43.38710 45.69992 546 ft 17 kts 359°
2026-05-07 17:48 43.38781 45.69989 545 ft 9 kts 358°
2026-05-07 17:48 43.38824 45.70009 545 ft 4 kts 62°
2026-05-07 17:49 43.38829 45.70112 546 ft 20 kts 95°
2026-05-07 17:49 43.38833 45.70375 547 ft 35 kts 87°
2026-05-07 17:49 43.38845 45.70769 548 ft 46 kts 87°
2026-05-07 17:49 43.38872 45.71209 547 ft 43 kts 91°
2026-05-07 17:50 43.38846 45.71475 546 ft 14 kts 91°
2026-05-07 17:50 43.38874 45.71459 548 ft 5 kts 289°
2026-05-07 17:50 43.38875 45.71420 555 ft 6 kts 266°
2026-05-07 17:50 43.38861 45.71078 546 ft 78 kts 266°
2026-05-07 17:51 43.38812 45.69964 545 ft 152 kts 266°
2026-05-07 17:51 43.38745 45.68365 1031 ft 172 kts 266°
2026-05-07 17:51 43.38678 45.66715 1982 ft 172 kts 269°
2026-05-07 17:51 43.38610 45.65056 2785 ft 176 kts 269°
2026-05-07 17:52 43.38538 45.63312 3191 ft 190 kts 268°
2026-05-07 17:52 43.38459 45.61391 3544 ft 208 kts 268°
2026-05-07 17:52 43.38372 45.59309 3964 ft 227 kts 268°
2026-05-07 17:52 43.38277 45.57097 4632 ft 235 kts 267°
2026-05-07 17:53 43.38179 45.54847 5458 ft 237 kts 267°
2026-05-07 17:53 43.38138 45.52576 6283 ft 239 kts 277°
2026-05-07 17:53 43.38648 45.50410 7064 ft 241 kts 300°
2026-05-07 17:53 43.39776 45.48695 7793 ft 246 kts 324°
2026-05-07 17:54 43.41389 45.47734 8370 ft 263 kts 349°
2026-05-07 17:54 43.43243 45.47877 9029 ft 274 kts 15°
2026-05-07 17:54 43.45071 45.48730 9779 ft 280 kts 17°
2026-05-07 17:54 43.46927 45.49604 10515 ft 283 kts 17°
2026-05-07 17:55 43.48718 45.50766 11285 ft 288 kts 33°
2026-05-07 17:55 43.50198 45.52638 12036 ft 293 kts 51°
2026-05-07 17:55 43.51199 45.55094 12781 ft 298 kts 69°
2026-05-07 17:55 43.51700 45.57876 13485 ft 302 kts 77°
2026-05-07 17:56 43.52138 45.60723 14182 ft 306 kts 77°
2026-05-07 17:56 43.52589 45.63603 14833 ft 310 kts 77°
2026-05-07 17:56 43.53050 45.66511 15062 ft 310 kts 77°
2026-05-07 17:56 43.53513 45.69413 15124 ft 310 kts 77°
2026-05-07 17:57 43.53977 45.72315 15134 ft 310 kts 77°
2026-05-07 17:57 43.54289 45.74272 15361 ft 310 kts 77°
2026-05-07 17:57 43.55303 45.78025 15855 ft 326 kts 54°
2026-05-07 17:57 43.56934 45.80239 16179 ft 337 kts 30°
2026-05-07 17:58 43.59137 45.81373 16491 ft 347 kts
2026-05-07 17:58 43.61601 45.81586 16697 ft 362 kts
2026-05-07 17:58 43.64173 45.81733 16873 ft 378 kts
2026-05-07 17:58 43.66853 45.81887 17009 ft 393 kts
2026-05-07 17:59 43.69681 45.82054 17141 ft 409 kts
2026-05-07 17:59 43.72565 45.82230 17268 ft 421 kts
2026-05-07 17:59 43.75526 45.82417 17572 ft 429 kts
2026-05-07 17:59 43.78513 45.82609 17998 ft 431 kts
2026-05-07 18:00 43.81520 45.82805 18432 ft 434 kts
2026-05-07 18:00 43.84544 45.83002 18794 ft 436 kts
2026-05-07 18:00 43.87568 45.83201 19170 ft 438 kts
2026-05-07 18:00 43.90635 45.83403 19532 ft 440 kts
2026-05-07 18:01 43.93696 45.83606 19888 ft 441 kts
2026-05-07 18:01 43.96766 45.83807 20240 ft 443 kts
2026-05-07 18:01 43.99851 45.84009 20572 ft 444 kts
2026-05-07 18:01 44.02944 45.84210 20900 ft 446 kts
2026-05-07 18:02 44.09162 45.84613 21532 ft 449 kts
2026-05-07 18:02 44.12285 45.84813 21840 ft 450 kts
2026-05-07 18:02 44.15417 45.85016 22126 ft 452 kts
2026-05-07 18:03 44.18566 45.85222 22405 ft 453 kts
2026-05-07 18:03 44.21724 45.85429 22676 ft 455 kts
2026-05-07 18:03 44.24891 45.85636 22944 ft 457 kts
2026-05-07 18:03 44.28073 45.85842 23188 ft 458 kts
2026-05-07 18:04 44.31264 45.86047 23434 ft 460 kts
2026-05-07 18:04 44.34460 45.86255 23670 ft 461 kts
2026-05-07 18:04 44.37669 45.86467 23858 ft 462 kts
2026-05-07 18:04 44.40879 45.86680 24081 ft 462 kts
2026-05-07 18:05 44.44088 45.86893 24357 ft 461 kts
2026-05-07 18:05 44.47289 45.87109 24622 ft 460 kts
2026-05-07 18:05 44.50488 45.87321 24885 ft 460 kts
2026-05-07 18:05 44.53678 45.87529 25159 ft 459 kts
2026-05-07 18:06 44.56906 45.87741 25440 ft 458 kts
2026-05-07 18:06 44.59015 45.87882 25628 ft 458 kts
2026-05-07 18:06 44.62191 45.88091 25915 ft 457 kts
2026-05-07 18:06 44.65363 45.88302 26213 ft 456 kts
2026-05-07 18:07 44.68531 45.88509 26515 ft 455 kts
2026-05-07 18:07 44.71691 45.88718 26834 ft 454 kts
2026-05-07 18:07 44.74847 45.88928 27131 ft 453 kts
2026-05-07 18:07 44.77994 45.89137 27432 ft 453 kts
2026-05-07 18:08 44.81140 45.89348 27739 ft 452 kts
2026-05-07 18:08 44.84275 45.89559 28058 ft 451 kts
2026-05-07 18:08 44.87413 45.89767 28387 ft 450 kts
2026-05-07 18:08 44.90536 45.89974 28715 ft 449 kts
2026-05-07 18:09 44.93661 45.90185 29039 ft 449 kts
2026-05-07 18:09 44.96774 45.90394 29378 ft 448 kts
2026-05-07 18:09 44.99884 45.90601 29700 ft 447 kts
2026-05-07 18:09 45.02988 45.90810 30027 ft 446 kts
2026-05-07 18:10 45.06082 45.91020 30309 ft 446 kts
2026-05-07 18:10 45.09179 45.91231 30578 ft 445 kts
2026-05-07 18:10 45.12273 45.91440 30851 ft 445 kts
2026-05-07 18:10 45.15408 45.91651 31096 ft 445 kts
2026-05-07 18:11 45.18458 45.91856 31347 ft 445 kts
2026-05-07 18:11 45.21590 45.92065 31620 ft 444 kts
2026-05-07 18:11 45.24675 45.92275 31885 ft 444 kts
2026-05-07 18:11 45.27760 45.92482 32134 ft 444 kts
2026-05-07 18:12 45.30841 45.92692 32417 ft 443 kts
2026-05-07 18:12 45.33919 45.92905 32688 ft 443 kts
2026-05-07 18:12 45.36993 45.93121 32951 ft 443 kts
2026-05-07 18:12 45.40068 45.93336 33206 ft 442 kts
2026-05-07 18:13 45.43143 45.93547 33470 ft 442 kts
2026-05-07 18:13 45.46214 45.93755 33740 ft 442 kts
2026-05-07 18:13 45.49285 45.93956 33989 ft 442 kts
2026-05-07 18:13 45.52354 45.94159 34216 ft 441 kts
2026-05-07 18:14 45.55422 45.94365 34429 ft 441 kts
2026-05-07 18:14 45.58487 45.94569 34635 ft 441 kts
2026-05-07 18:14 45.61547 45.94777 34844 ft 441 kts
2026-05-07 18:14 45.64624 45.94988 34992 ft 443 kts
2026-05-07 18:15 45.67714 45.95201 35034 ft 446 kts
2026-05-07 18:15 45.73962 45.95633 35032 ft 451 kts
2026-05-07 18:16 45.80231 45.96077 35028 ft 451 kts
2026-05-07 18:16 45.86503 45.96523 35022 ft 451 kts
2026-05-07 18:17 45.92770 45.96952 35017 ft 451 kts
2026-05-07 18:17 45.99044 45.97382 35012 ft 452 kts
2026-05-07 18:18 46.05325 45.97816 35011 ft 452 kts
2026-05-07 18:18 46.11605 45.98254 35010 ft 452 kts
2026-05-07 18:19 46.17930 45.98691 35009 ft 452 kts
2026-05-07 18:19 46.24214 45.99142 35012 ft 452 kts
2026-05-07 18:20 46.30495 45.99594 35008 ft 452 kts
2026-05-07 18:20 46.36783 46.00038 35011 ft 452 kts
2026-05-07 18:21 46.43070 46.00481 35011 ft 452 kts
2026-05-07 18:21 46.49352 46.00921 35007 ft 452 kts
2026-05-07 18:22 46.55636 46.01363 35007 ft 452 kts
2026-05-07 18:22 46.61915 46.01807 35004 ft 452 kts
2026-05-07 18:23 46.68204 46.02264 35004 ft 452 kts
2026-05-07 18:23 46.74489 46.02708 35003 ft 452 kts
2026-05-07 18:24 46.80821 46.03149 35000 ft 452 kts
2026-05-07 18:24 46.87105 46.03600 35003 ft 452 kts
2026-05-07 18:25 46.93356 46.02796 34993 ft 454 kts 346°
2026-05-07 18:25 46.99196 45.99306 34990 ft 455 kts 335°
2026-05-07 18:26 47.04903 45.95305 34983 ft 455 kts 335°
2026-05-07 18:26 47.10610 45.91325 34984 ft 454 kts 335°
2026-05-07 18:27 47.16312 45.87335 34986 ft 454 kts 335°
2026-05-07 18:27 47.22008 45.83330 34986 ft 454 kts 335°
2026-05-07 18:28 47.27710 45.79308 34985 ft 454 kts 335°
2026-05-07 18:28 47.33400 45.75288 35001 ft 453 kts 335°
2026-05-07 18:29 47.39077 45.71254 34995 ft 453 kts 335°
2026-05-07 18:29 47.44753 45.67201 34995 ft 453 kts 335°
2026-05-07 18:30 47.50430 45.63161 34985 ft 453 kts 335°
2026-05-07 18:30 47.56116 45.59109 34985 ft 453 kts 335°
2026-05-07 18:31 47.61783 45.55044 34992 ft 453 kts 335°
2026-05-07 18:31 47.67491 45.50954 34982 ft 453 kts 335°
2026-05-07 18:32 47.73163 45.46888 34981 ft 453 kts 335°
2026-05-07 18:32 47.78804 45.42689 34992 ft 453 kts 329°
2026-05-07 18:33 47.83714 45.36808 34981 ft 455 kts 318°
2026-05-07 18:33 47.88395 45.30454 34997 ft 455 kts 319°
2026-05-07 18:34 47.93086 45.24125 34986 ft 454 kts 319°
2026-05-07 18:34 47.97767 45.17781 34987 ft 455 kts 318°
2026-05-07 18:35 48.02466 45.11472 34984 ft 454 kts 323°
2026-05-07 18:35 48.07675 45.06149 34988 ft 454 kts 327°
2026-05-07 18:36 48.12923 45.00901 34999 ft 454 kts 327°
2026-05-07 18:36 48.18158 44.95630 35000 ft 453 kts 327°
2026-05-07 18:37 48.23427 44.90309 35002 ft 453 kts 327°
2026-05-07 18:37 48.28658 44.85030 34999 ft 453 kts 327°
2026-05-07 18:38 48.38749 44.74789 35000 ft 453 kts 327°
2026-05-07 18:39 48.44010 44.69441 34998 ft 453 kts 327°
2026-05-07 18:39 48.49231 44.64099 35003 ft 453 kts 327°
2026-05-07 18:40 48.54438 44.58753 35001 ft 453 kts 326°
2026-05-07 18:40 48.59649 44.53402 35001 ft 453 kts 327°
2026-05-07 18:41 48.64854 44.48046 34996 ft 452 kts 327°
2026-05-07 18:41 48.70053 44.42677 34998 ft 452 kts 327°
2026-05-07 18:42 48.75240 44.37299 35001 ft 452 kts 326°
2026-05-07 18:42 48.80752 44.32820 34993 ft 449 kts 341°
2026-05-07 18:43 48.86619 44.29545 34998 ft 449 kts 340°
2026-05-07 18:43 48.92475 44.26241 35000 ft 449 kts 340°
2026-05-07 18:44 48.98320 44.22922 35009 ft 448 kts 340°
2026-05-07 18:44 49.04156 44.19590 35014 ft 448 kts 340°
2026-05-07 18:45 49.09991 44.16258 35013 ft 448 kts 340°
2026-05-07 18:45 49.15856 44.12913 35013 ft 447 kts 340°
2026-05-07 18:46 49.21679 44.09572 35007 ft 447 kts 340°
2026-05-07 18:46 49.27500 44.06221 35001 ft 447 kts 340°
2026-05-07 18:47 49.33318 44.02880 34996 ft 447 kts 340°
2026-05-07 18:47 49.39132 43.99519 34996 ft 446 kts 340°
2026-05-07 18:48 49.44945 43.96156 34998 ft 447 kts 340°
2026-05-07 18:48 49.50755 43.92770 35001 ft 446 kts 339°
2026-05-07 18:49 49.56275 43.88392 34993 ft 448 kts 333°
2026-05-07 18:49 49.61749 43.83802 34998 ft 447 kts 333°
2026-05-07 18:50 49.67214 43.79212 34999 ft 447 kts 333°
2026-05-07 18:50 49.72680 43.74613 34992 ft 447 kts 333°
2026-05-07 18:51 49.78141 43.69995 34995 ft 447 kts 333°
2026-05-07 18:51 49.83603 43.65376 34991 ft 447 kts 332°
2026-05-07 18:52 49.88175 43.61503 34990 ft 447 kts 332°
2026-05-07 18:52 49.93638 43.56869 34996 ft 447 kts 332°
2026-05-07 18:53 49.99100 43.52223 34998 ft 447 kts 332°
2026-05-07 18:53 50.04552 43.47559 35000 ft 447 kts 332°
2026-05-07 18:54 50.10003 43.42883 35037 ft 448 kts 332°
2026-05-07 18:54 50.12732 43.40538 35200 ft 448 kts 332°
2026-05-07 18:54 50.15457 43.38196 35358 ft 447 kts 332°
2026-05-07 18:54 50.18180 43.35854 35491 ft 447 kts 332°
2026-05-07 18:55 50.20909 43.33506 35631 ft 448 kts 332°
2026-05-07 18:55 50.23634 43.31159 35770 ft 448 kts 332°
2026-05-07 18:55 50.26361 43.28806 35928 ft 447 kts 332°
2026-05-07 18:56 50.31812 43.24095 35987 ft 448 kts 332°
2026-05-07 18:56 50.37261 43.19356 35982 ft 448 kts 331°
2026-05-07 18:57 50.42716 43.14595 35979 ft 449 kts 331°
2026-05-07 18:57 50.48210 43.09796 35987 ft 449 kts 331°
2026-05-07 18:58 50.53670 43.05030 35984 ft 449 kts 331°
2026-05-07 18:58 50.59126 43.00247 35978 ft 449 kts 331°
2026-05-07 18:59 50.64571 42.95449 35977 ft 449 kts 331°
2026-05-07 18:59 50.70072 42.90799 35975 ft 449 kts 338°
2026-05-07 19:00 50.75961 42.87495 35970 ft 449 kts 341°
2026-05-07 19:00 50.81850 42.84222 35971 ft 449 kts 340°
2026-05-07 19:01 50.87734 42.80915 35973 ft 449 kts 340°
2026-05-07 19:01 50.93623 42.77612 35964 ft 449 kts 340°
2026-05-07 19:02 50.99520 42.74301 35968 ft 449 kts 340°
2026-05-07 19:02 51.05409 42.70992 35967 ft 449 kts 340°
2026-05-07 19:03 51.11295 42.67669 35964 ft 449 kts 340°
2026-05-07 19:03 51.17183 42.64333 35972 ft 449 kts 340°
2026-05-07 19:04 51.23070 42.60981 35976 ft 449 kts 340°
2026-05-07 19:04 51.28966 42.57623 35977 ft 450 kts 340°
2026-05-07 19:05 51.34855 42.54270 35976 ft 449 kts 340°
2026-05-07 19:05 51.40791 42.50879 35974 ft 449 kts 340°
2026-05-07 19:06 51.46682 42.47496 35978 ft 450 kts 340°
2026-05-07 19:06 51.55505 42.42414 35979 ft 449 kts 340°
2026-05-07 19:07 51.61389 42.39018 35977 ft 449 kts 340°
2026-05-07 19:07 51.67279 42.35603 35977 ft 449 kts 340°
2026-05-07 19:08 51.73164 42.32181 35973 ft 450 kts 340°
2026-05-07 19:08 51.79047 42.28755 35970 ft 450 kts 340°
2026-05-07 19:09 51.84931 42.25315 35967 ft 450 kts 340°
2026-05-07 19:09 51.90823 42.21858 35974 ft 450 kts 340°
2026-05-07 19:10 51.96704 42.18403 35982 ft 450 kts 340°
2026-05-07 19:10 52.02588 42.14934 35985 ft 450 kts 340°
2026-05-07 19:11 52.08466 42.11462 35986 ft 449 kts 339°
2026-05-07 19:11 52.14355 42.08060 35982 ft 449 kts 341°
2026-05-07 19:12 52.20293 42.04829 35979 ft 449 kts 341°
2026-05-07 19:12 52.26271 42.01592 35979 ft 449 kts 341°
2026-05-07 19:13 52.32183 41.98312 35976 ft 449 kts 340°
2026-05-07 19:13 52.38231 41.95824 35972 ft 450 kts 354°
2026-05-07 19:14 52.44505 41.95894 35962 ft 451 kts
2026-05-07 19:14 52.50771 41.96246 35967 ft 451 kts
2026-05-07 19:15 52.57053 41.96578 35966 ft 451 kts
2026-05-07 19:15 52.63324 41.96918 35959 ft 451 kts
2026-05-07 19:16 52.69521 41.95811 35957 ft 449 kts 343°
2026-05-07 19:16 52.75141 41.91451 35941 ft 448 kts 324°
2026-05-07 19:17 52.80022 41.85038 35960 ft 448 kts 320°
2026-05-07 19:17 52.84844 41.78524 35960 ft 448 kts 320°
2026-05-07 19:18 52.89670 41.71986 35958 ft 447 kts 320°
2026-05-07 19:18 52.94477 41.65458 35959 ft 447 kts 320°
2026-05-07 19:19 52.99285 41.58913 35966 ft 447 kts 320°
2026-05-07 19:19 53.04099 41.52351 35951 ft 447 kts 320°
2026-05-07 19:20 53.08926 41.45746 35957 ft 446 kts 320°
2026-05-07 19:20 53.13680 41.39215 35953 ft 446 kts 320°
2026-05-07 19:21 53.18491 41.32579 35951 ft 446 kts 320°
2026-05-07 19:21 53.23599 41.26751 35940 ft 447 kts 334°
2026-05-07 19:22 53.29487 41.23353 35942 ft 448 kts 342°
2026-05-07 19:22 53.35444 41.20332 35942 ft 448 kts 342°
2026-05-07 19:23 53.41414 41.17267 35960 ft 448 kts 342°
2026-05-07 19:23 53.47374 41.14199 35957 ft 448 kts 342°
2026-05-07 19:24 53.53333 41.11127 35963 ft 448 kts 342°
2026-05-07 19:24 53.59292 41.08057 35962 ft 448 kts 342°
2026-05-07 19:25 53.64221 41.05394 35961 ft 447 kts 336°
2026-05-07 19:25 53.69461 40.99788 35942 ft 445 kts 316°
2026-05-07 19:26 53.73209 40.91537 35939 ft 444 kts 296°
2026-05-07 19:26 53.75707 40.82002 35946 ft 444 kts 293°
2026-05-07 19:27 53.78161 40.72438 35951 ft 443 kts 293°
2026-05-07 19:27 53.80613 40.62880 35941 ft 443 kts 293°
2026-05-07 19:28 53.83055 40.53314 35951 ft 442 kts 293°
2026-05-07 19:28 53.85489 40.43758 35940 ft 442 kts 293°
2026-05-07 19:29 53.87912 40.34176 35938 ft 442 kts 293°
2026-05-07 19:29 53.90332 40.24597 35940 ft 442 kts 293°
2026-05-07 19:30 53.92752 40.15018 35947 ft 442 kts 293°
2026-05-07 19:30 53.95161 40.05418 35955 ft 442 kts 292°
2026-05-07 19:31 53.97556 39.95818 35954 ft 442 kts 292°
2026-05-07 19:31 53.99940 39.86222 35873 ft 438 kts 292°
2026-05-07 19:32 54.01125 39.81439 35746 ft 426 kts 292°
2026-05-07 19:32 54.02260 39.76862 35477 ft 417 kts 292°
2026-05-07 19:32 54.03364 39.72384 34908 ft 415 kts 292°
2026-05-07 19:32 54.04485 39.67815 34391 ft 412 kts 292°
2026-05-07 19:33 54.05586 39.63331 33921 ft 408 kts 293°
2026-05-07 19:33 54.06671 39.58897 33388 ft 404 kts 293°
2026-05-07 19:33 54.07748 39.54494 32868 ft 401 kts 293°
2026-05-07 19:33 54.08817 39.50128 32360 ft 398 kts 293°
2026-05-07 19:34 54.09868 39.45823 31631 ft 391 kts 293°
2026-05-07 19:34 54.10906 39.41569 30773 ft 387 kts 293°
2026-05-07 19:34 54.11936 39.37353 29963 ft 383 kts 293°
2026-05-07 19:34 54.12952 39.33176 29059 ft 379 kts 292°
2026-05-07 19:35 54.13949 39.29053 28225 ft 374 kts 292°
2026-05-07 19:35 54.14933 39.24973 27428 ft 369 kts 292°
2026-05-07 19:35 54.15901 39.20952 26683 ft 364 kts 292°
2026-05-07 19:35 54.16855 39.16979 25942 ft 359 kts 292°
2026-05-07 19:36 54.17796 39.13059 25194 ft 354 kts 291°
2026-05-07 19:36 54.18721 39.09192 24476 ft 350 kts 291°
2026-05-07 19:36 54.19632 39.05372 23768 ft 346 kts 291°
2026-05-07 19:36 54.20535 39.01593 22991 ft 342 kts 291°
2026-05-07 19:37 54.21426 38.97859 22219 ft 337 kts 291°
2026-05-07 19:37 54.22303 38.94169 21478 ft 333 kts 291°
2026-05-07 19:37 54.23389 38.90699 20525 ft 336 kts 309°
2026-05-07 19:37 54.25199 38.88236 19952 ft 332 kts 329°
2026-05-07 19:38 54.27248 38.86455 19262 ft 329 kts 330°
2026-05-07 19:38 54.29286 38.84720 18596 ft 326 kts 330°
2026-05-07 19:38 54.31310 38.83008 17923 ft 323 kts 330°
2026-05-07 19:38 54.33313 38.81313 17207 ft 320 kts 330°
2026-05-07 19:39 54.35326 38.79603 16494 ft 317 kts 329°
2026-05-07 19:39 54.37294 38.77925 15807 ft 315 kts 330°
2026-05-07 19:39 54.39245 38.76253 15137 ft 312 kts 330°
2026-05-07 19:39 54.41175 38.74598 14487 ft 310 kts 330°
2026-05-07 19:40 54.43101 38.72946 13849 ft 308 kts 330°
2026-05-07 19:40 54.45003 38.71312 13162 ft 306 kts 330°
2026-05-07 19:40 54.46905 38.69677 12473 ft 303 kts 330°
2026-05-07 19:40 54.48786 38.68055 11793 ft 301 kts 330°
2026-05-07 19:41 54.50652 38.66445 11137 ft 299 kts 330°
2026-05-07 19:41 54.52486 38.64865 10872 ft 294 kts 330°
2026-05-07 19:41 54.54325 38.63279 10866 ft 295 kts 330°
2026-05-07 19:41 54.56159 38.61697 10865 ft 295 kts 330°
2026-05-07 19:42 54.58014 38.60094 10867 ft 309 kts 330°
2026-05-07 19:42 54.60021 38.58343 10866 ft 339 kts 330°
2026-05-07 19:42 54.62214 38.56421 10974 ft 365 kts 330°
2026-05-07 19:42 54.64527 38.54399 11277 ft 382 kts 330°
2026-05-07 19:43 54.66944 38.52295 11637 ft 394 kts 330°
2026-05-07 19:43 54.69410 38.50151 12253 ft 399 kts 330°
2026-05-07 19:43 54.71903 38.47987 12946 ft 402 kts 330°
2026-05-07 19:43 54.74404 38.45816 13620 ft 405 kts 329°
2026-05-07 19:44 54.76938 38.43615 14231 ft 408 kts 330°
2026-05-07 19:44 54.79483 38.41406 14840 ft 411 kts 330°
2026-05-07 19:44 54.82047 38.39181 15436 ft 413 kts 330°
2026-05-07 19:44 54.84533 38.36706 16013 ft 412 kts 322°
2026-05-07 19:45 54.86761 38.33590 16576 ft 410 kts 313°
2026-05-07 19:45 54.88760 38.30044 17120 ft 412 kts 311°
2026-05-07 19:45 54.90760 38.26462 17648 ft 415 kts 311°
2026-05-07 19:45 54.92779 38.22858 17990 ft 416 kts 311°
2026-05-07 19:46 54.94814 38.19231 18065 ft 423 kts 311°
2026-05-07 19:46 54.96899 38.15514 18059 ft 424 kts 311°
2026-05-07 19:46 54.98961 38.11839 18064 ft 424 kts 311°
2026-05-07 19:46 55.01017 38.08153 18060 ft 424 kts 311°
2026-05-07 19:47 55.03066 38.04460 18061 ft 424 kts 311°
2026-05-07 19:47 55.05115 38.00759 18058 ft 424 kts 311°
2026-05-07 19:47 55.07162 37.97054 18058 ft 424 kts 311°
2026-05-07 19:47 55.09210 37.93341 18062 ft 424 kts 311°
2026-05-07 19:48 55.11256 37.89627 18057 ft 424 kts 311°
2026-05-07 19:48 55.13301 37.85909 18054 ft 424 kts 311°
2026-05-07 19:48 55.15445 37.82357 18058 ft 427 kts 319°
2026-05-07 19:48 55.17829 37.79245 18055 ft 428 kts 320°
2026-05-07 19:49 55.20003 37.76423 18059 ft 428 kts 320°
2026-05-07 19:49 55.22395 37.73318 18058 ft 428 kts 320°
2026-05-07 19:49 55.24788 37.70208 18058 ft 428 kts 320°
2026-05-07 19:49 55.27177 37.67096 18058 ft 428 kts 320°
2026-05-07 19:50 55.29566 37.63971 18056 ft 428 kts 320°
2026-05-07 19:50 55.31954 37.60841 18052 ft 428 kts 320°
2026-05-07 19:50 55.34342 37.57704 18056 ft 428 kts 320°
2026-05-07 19:50 55.36727 37.54568 18054 ft 428 kts 320°
2026-05-07 19:51 55.39111 37.51433 18053 ft 428 kts 320°
2026-05-07 19:51 55.41495 37.48292 18039 ft 428 kts 320°
2026-05-07 19:51 55.43863 37.45163 17888 ft 419 kts 319°
2026-05-07 19:51 55.46150 37.42143 17633 ft 403 kts 319°
2026-05-07 19:52 55.48511 37.39464 17377 ft 394 kts 328°
2026-05-07 19:52 55.50992 37.37525 17107 ft 387 kts 336°
2026-05-07 19:52 55.53565 37.36293 16845 ft 381 kts 345°
2026-05-07 19:52 55.56173 37.35742 16596 ft 375 kts 353°
2026-05-07 19:53 55.58759 37.35698 16337 ft 367 kts 355°
2026-05-07 19:53 55.61257 37.35686 16070 ft 349 kts 354°
2026-05-07 19:53 55.63619 37.35670 15833 ft 330 kts 354°
2026-05-07 19:53 55.65891 37.35649 15591 ft 325 kts 354°
2026-05-07 19:54 55.68142 37.35619 15332 ft 323 kts 354°
2026-05-07 19:54 55.70404 37.35586 14840 ft 327 kts 354°
2026-05-07 19:54 55.72673 37.35554 14502 ft 325 kts 353°
2026-05-07 19:54 55.74920 37.35436 14199 ft 321 kts 351°
2026-05-07 19:55 55.77151 37.35213 13826 ft 321 kts 350°
2026-05-07 19:55 55.79372 37.34942 13466 ft 319 kts 350°
2026-05-07 19:55 55.81580 37.34665 13093 ft 317 kts 350°
2026-05-07 19:55 55.83774 37.34394 12710 ft 316 kts 350°
2026-05-07 19:56 55.85962 37.34128 12331 ft 315 kts 351°
2026-05-07 19:56 55.88142 37.33873 11920 ft 311 kts 351°
2026-05-07 19:56 55.90293 37.33631 11227 ft 310 kts 351°
2026-05-07 19:56 55.92436 37.33400 10775 ft 307 kts 351°
2026-05-07 19:57 55.94485 37.33179 10490 ft 306 kts 351°
2026-05-07 19:57 55.96598 37.32836 10207 ft 302 kts 343°
2026-05-07 19:57 55.97957 37.32212 10022 ft 297 kts 334°
2026-05-07 19:57 55.99803 37.30674 9718 ft 289 kts 321°
2026-05-07 19:58 56.01489 37.28742 9422 ft 288 kts 321°
2026-05-07 19:58 56.03177 37.26816 9126 ft 287 kts 321°
2026-05-07 19:58 56.04863 37.24901 8837 ft 286 kts 321°
2026-05-07 19:58 56.06549 37.23017 8555 ft 287 kts 325°
2026-05-07 19:59 56.08468 37.21909 8264 ft 297 kts 350°
2026-05-07 19:59 56.10529 37.22370 8016 ft 301 kts 18°
2026-05-07 19:59 56.12277 37.24331 7902 ft 295 kts 44°
2026-05-07 19:59 56.13491 37.27189 7771 ft 283 kts 56°
2026-05-07 20:00 56.14586 37.30057 7654 ft 273 kts 55°
2026-05-07 20:00 56.15626 37.32836 7522 ft 264 kts 61°
2026-05-07 20:00 56.16322 37.35798 7405 ft 253 kts 77°
2026-05-07 20:00 56.16759 37.38798 7266 ft 245 kts 77°
2026-05-07 20:01 56.17192 37.41701 7103 ft 237 kts 77°
2026-05-07 20:01 56.17627 37.44597 6571 ft 246 kts 77°
2026-05-07 20:01 56.18079 37.47609 6048 ft 249 kts 76°
2026-05-07 20:01 56.18526 37.50578 5692 ft 244 kts 76°
2026-05-07 20:02 56.18959 37.53460 5440 ft 235 kts 76°
2026-05-07 20:02 56.19242 37.56290 5203 ft 228 kts 92°
2026-05-07 20:02 56.18991 37.59051 4982 ft 222 kts 115°
2026-05-07 20:02 56.18256 37.61434 4890 ft 216 kts 135°
2026-05-07 20:03 56.17229 37.63350 4805 ft 212 kts 141°
2026-05-07 20:03 56.16194 37.65231 4694 ft 212 kts 140°
2026-05-07 20:03 56.15167 37.67113 4588 ft 211 kts 140°
2026-05-07 20:03 56.14141 37.68997 4486 ft 211 kts 140°
2026-05-07 20:04 56.13116 37.70875 4380 ft 210 kts 140°
2026-05-07 20:04 56.12085 37.72763 4281 ft 209 kts 139°
2026-05-07 20:04 56.11071 37.74621 4186 ft 208 kts 139°
2026-05-07 20:04 56.10018 37.76365 4079 ft 203 kts 153°
2026-05-07 20:05 56.08723 37.77138 3989 ft 194 kts 181°
2026-05-07 20:05 56.07423 37.76775 3838 ft 189 kts 202°
2026-05-07 20:05 56.06177 37.76039 3677 ft 189 kts 201°
2026-05-07 20:05 56.04922 37.75320 3522 ft 189 kts 200°
2026-05-07 20:06 56.03666 37.74602 3368 ft 190 kts 201°
2026-05-07 20:06 56.02517 37.73513 3217 ft 188 kts 221°
2026-05-07 20:06 56.01691 37.71732 3104 ft 187 kts 242°
2026-05-07 20:06 56.01276 37.69531 3032 ft 187 kts 254°
2026-05-07 20:07 56.00946 37.67276 3028 ft 188 kts 254°
2026-05-07 20:07 56.00621 37.65057 2896 ft 177 kts 254°
2026-05-07 20:07 56.00326 37.63045 2721 ft 157 kts 254°
2026-05-07 20:07 56.00057 37.61213 2523 ft 151 kts 253°
2026-05-07 20:08 55.99789 37.59399 2339 ft 151 kts 253°
2026-05-07 20:08 55.99523 37.57590 2140 ft 150 kts 253°
2026-05-07 20:08 55.99257 37.55789 1946 ft 149 kts 253°
2026-05-07 20:08 55.98993 37.54001 1746 ft 149 kts 253°
2026-05-07 20:09 55.98728 37.52205 1553 ft 149 kts 253°
2026-05-07 20:09 55.98464 37.50422 1355 ft 148 kts 255°
2026-05-07 20:09 55.98201 37.48645 1159 ft 147 kts 255°
2026-05-07 20:10 55.97676 37.45135 756 ft 146 kts 256°
2026-05-07 20:10 55.97412 37.43398 645 ft 143 kts 257°
2026-05-07 20:10 55.97214 37.41944 646 ft 95 kts 255°
2026-05-07 20:10 55.97179 37.41365 645 ft 24 kts 323°
2026-05-07 20:11 55.97340 37.41243 641 ft 24 kts 342°
2026-05-07 20:11 55.97475 37.41192 641 ft 18 kts 352°
2026-05-07 20:11 55.97555 37.41328 641 ft 22 kts 83°
2026-05-07 20:11 55.97599 37.41562 640 ft 16 kts 59°
2026-05-07 20:12 55.97694 37.41574 639 ft 16 kts 344°
2026-05-07 20:12 55.97812 37.41516 644 ft 17 kts 353°
2026-05-07 20:12 55.97871 37.41564 647 ft 8 kts 74°
2026-05-07 20:12 55.97886 37.41658 639 ft 3 kts 76°
2026-05-07 20:13 55.97888 37.41668 639 ft 0 kts 76°